F1AZJ-14 Weather Reports


Display with metric or nautical units.
time (UTC)temp
F
wind
direction
speed
MPH
gust
MPH
rain 1hr
in
rain 24hr
in
rain mn
in
humidity
%
barometer
mb
20260902023018 62 104 5.0 6.0 0.00 0.00 0.00 75 1014.8
20260902021518 62 104 5.0 6.0 0.00 0.00 0.00 74 1014.8
20260902020018 63 101 6.0 6.0 0.00 0.00 0.00 73 1014.8
20260902014518 63 97 5.0 6.0 0.00 0.00 0.00 73 1014.8
20260902013018 63 94 5.0 6.0 0.00 0.00 0.00 72 1014.8
20260902011518 63 95 5.0 6.0 0.00 0.00 0.00 71 1014.8
20260902010018 63 95 5.0 6.0 0.00 0.00 0.00 70 1014.8
20260902004519 63 75 4.0 5.0 0.00 0.00 0.00 69 1014.8
20260902003039 64 64 4.0 5.0 0.00 0.00 0.00 68 1014.8
20260902001519 65 54 3.0 4.0 0.00 0.00 0.00 66 1014.8
20260902000018 65 27 4.0 5.0 0.00 0.00 0.00 66 1014.8
20260901234600 65 349 4.0 5.0 0.00 0.00 0.00 66 1014.8
20260901233018 65 335 3.0 4.0 0.00 0.00 0.00 66 1014.8
20260901231518 65 0.0 0.0 0.00 0.00 0.00 65 1014.8
20260901230018 66 0.0 0.0 0.00 0.00 0.00 64 1014.8
20260901224518 66 0.0 0.0 0.00 0.00 0.00 62 1014.8
20260901223018 67 0.0 0.0 0.00 0.00 0.00 62 1014.8
20260901221539 67 0.0 2.0 0.00 0.00 0.00 62 1014.8
20260901220019 67 313 0.0 3.0 0.00 0.00 0.00 61 1014.8
20260901214518 67 0.0 0.0 0.00 0.00 0.00 60 1014.8
20260901213018 67 0.0 0.0 0.00 0.00 0.00 60 1014.8
20260901211518 67 0.0 0.0 0.00 0.00 0.00 59 1014.8
20260901210018 68 0.0 0.0 0.00 0.00 0.00 59 1014.8
20260901204539 68 0.0 0.0 0.00 0.00 0.00 59 1014.8
20260901203018 68 0.0 0.0 0.00 0.00 0.00 59 1014.8
20260901201518 68 0.0 0.0 0.00 0.00 0.00 58 1014.8
20260901200017 69 310 1.0 5.0 0.00 0.00 0.00 58 1014.8
20260901194539 69 0.0 0.0 0.00 0.00 0.00 58 1014.8
20260901193018 69 310 0.0 4.0 0.00 0.00 0.00 58 1014.8
20260901191539 69 310 1.0 4.0 0.00 0.00 0.00 57 1014.8
20260901190017 70 309 5.0 6.0 0.00 0.00 0.00 56 1014.8
20260901184518 70 308 5.0 7.0 0.00 0.00 0.00 55 1014.8
20260901183018 71 304 6.0 7.0 0.00 0.00 0.00 54 1014.8
20260901181518 72 300 5.0 6.0 0.00 0.00 0.00 51 1014.8
20260901180020 73 297 6.0 8.0 0.00 0.00 0.00 49 1014.8
20260901174517 74 292 7.0 9.0 0.00 0.00 0.00 48 1014.8
20260901173018 75 291 6.0 9.0 0.00 0.00 0.00 46 1014.8
20260901171518 76 302 4.0 7.0 0.00 0.00 0.00 45 1014.8
20260901170018 77 292 5.0 9.0 0.00 0.00 0.00 45 1014.8
20260901164517 77 290 6.0 10.0 0.00 0.00 0.00 44 1014.8
20260901163018 77 300 4.0 6.0 0.00 0.00 0.00 44 1014.8
20260901161518 78 289 5.0 9.0 0.00 0.00 0.00 44 1014.8
20260901160018 78 295 6.0 10.0 0.00 0.00 0.00 44 1014.8
20260901154518 78 297 7.0 12.0 0.00 0.00 0.00 43 1014.8
20260901153018 78 278 7.0 13.0 0.00 0.00 0.00 43 1014.8
20260901151518 78 282 7.0 13.0 0.00 0.00 0.00 44 1014.8
20260901150039 78 296 8.0 13.0 0.00 0.00 0.00 43 1014.8
20260901144559 79 287 8.0 17.0 0.00 0.00 0.00 42 1014.8
20260901143018 79 281 5.0 11.0 0.00 0.00 0.00 42 1014.8
20260901141518 79 287 7.0 12.0 0.00 0.00 0.00 42 1014.8
20260901140018 79 308 9.0 14.0 0.00 0.00 0.00 43 1014.8
20260901134518 80 293 8.0 12.0 0.00 0.00 0.00 42 1014.8
20260901133018 80 286 5.0 9.0 0.00 0.00 0.00 42 1014.8
20260901131518 80 269 10.0 15.0 0.00 0.00 0.00 42 1014.8
20260901130018 81 277 7.0 12.0 0.00 0.00 0.00 44 1015.7
20260901124518 80 287 9.0 15.0 0.00 0.00 0.00 45 1015.9
20260901123044 78 262 7.0 12.0 0.00 0.00 0.00 46 1015.9
20260901121544 79 270 9.0 14.0 0.00 0.00 0.00 45 1015.9
20260901120024 79 269 8.0 14.0 0.00 0.00 0.00 48 1015.9
20260901114523 77 261 7.0 11.0 0.00 0.00 0.00 52 1015.9
20260901113059 76 287 7.0 12.0 0.00 0.00 0.00 52 1015.9
20260901111520 76 278 6.0 10.0 0.00 0.00 0.00 53 1015.9
20260901110018 77 275 6.0 10.0 0.00 0.00 0.00 53 1015.9
20260901104518 76 270 5.0 8.0 0.00 0.00 0.00 58 1015.9
20260901103038 75 268 5.0 8.0 0.00 0.00 0.00 56 1015.9
20260901101517 76 279 7.0 11.0 0.00 0.00 0.00 54 1015.9
20260901100038 76 256 4.0 7.0 0.00 0.00 0.00 59 1015.9
20260901094538 75 231 5.0 7.0 0.00 0.00 0.00 60 1015.9
20260901093017 75 237 5.0 7.0 0.00 0.00 0.00 63 1015.9
20260901091518 73 252 4.0 9.0 0.00 0.00 0.00 69 1015.9
20260901090018 70 268 4.0 6.0 0.00 0.00 0.00 73 1015.9
20260901084538 68 259 5.0 7.0 0.00 0.00 0.00 80 1015.9
20260901083018 66 264 3.0 7.0 0.00 0.00 0.00 83 1015.9
20260901081517 64 272 3.0 6.0 0.00 0.00 0.00 84 1015.9
20260901080018 63 277 2.0 6.0 0.00 0.00 0.00 86 1015.9
20260901074518 62 286 4.0 6.0 0.00 0.00 0.00 87 1015.9
20260901073038 61 277 2.0 6.0 0.00 0.00 0.00 88 1015.9
20260901071538 60 261 2.0 6.0 0.00 0.00 0.00 89 1015.9
20260901070018 59 248 4.0 6.0 0.00 0.00 0.00 90 1015.9
20260901064518 59 245 2.0 6.0 0.00 0.00 0.00 91 1015.9
20260901063017 58 247 4.0 6.0 0.00 0.00 0.00 91 1015.9
20260901061519 58 238 5.0 8.0 0.00 0.00 0.00 91 1015.9
20260901060038 58 215 6.0 8.0 0.00 0.00 0.00 92 1015.0
20260901054518 57 214 6.0 7.0 0.00 0.00 0.00 92 1014.8
20260901053018 57 221 6.0 7.0 0.00 0.00 0.00 92 1014.8
20260901051518 57 230 6.0 7.0 0.00 0.00 0.00 92 1014.8
20260901050017 57 227 5.0 6.0 0.00 0.00 0.00 92 1014.8
20260901044640 57 227 5.0 5.0 0.00 0.00 0.00 92 1014.8
20260901043018 57 215 5.0 6.0 0.00 0.00 0.00 92 1014.8
20260901041518 57 201 5.0 6.0 0.00 0.00 0.00 92 1014.8
20260901040017 58 200 6.0 6.0 0.00 0.00 0.00 92 1014.8
20260901034517 58 200 4.0 6.0 0.00 0.00 0.00 93 1014.8
20260901033017 57 199 4.0 5.0 0.00 0.00 0.00 92 1014.8
20260901031517 57 205 5.0 6.0 0.00 0.00 0.00 93 1014.8
20260901030017 57 224 6.0 6.0 0.00 0.00 0.00 92 1014.8
20260901024517 57 241 6.0 6.0 0.00 0.00 0.00 92 1014.8